User: anonymous   Login
Location: Unspecified
(20.0000°S, 0.0000°E)
Time: 22:40:29
(UTC+00:00)
Language:

NUDT-PHONESAT - Orbit

View from above orbital plane
View from above orbital plane
View from above satellite
View from above satellite

Ground track
Ground track

The orbit data is extracted from the following two-line orbital elements,

1 40900U 15049B   19200.39850407  .00001320  00000-0  59285-4 0  9999
2 40900  97.4359 209.4306 0014556  78.2270  29.2902 15.22854756212333
Epoch (UTC): 19 July 2019 09:33:50
Eccentricity: 0.0014556
inclination: 97.4359°
perigee height: 487 km
apogee height: 507 km
right ascension of ascending node: 209.4306°
argument of perigee: 78.2270°
revolutions per day: 15.22854756
mean anomaly at epoch: 29.2902°
orbit number at epoch: 21233

The dashed part of the orbit path shows where the satellite is in the earth's shadow,  

DLR